Regional Weather Roundup
Issued by NWS Goodland, KS

Home | Current Version | Previous Version | Text Only | Print | Product List | Glossary Off
Versions: 1 2 3 4 5 6 7 8 9 10 11 12 13 14 15 16 17 18 19 20 21 22 23 24 25 26 27 28 29 30 31 32 33 34 35 36 37 38 39 40 41 42 43 44 45 46 47 48 49 50

000
ASUS43 KGLD 141959
RWRGLD

GOODLAND FORECAST AREA HOURLY WEATHER ROUNDUP
NATIONAL WEATHER SERVICE GOODLAND KS
100 PM MST THU DEC 14 2017

...OFFICIAL OBSERVATIONS...

CITY           SKY/WX    TMP DP  RH WIND       PRES   REMARKS
GOODLAND KS    CLOUDY    43  21  41 N24G38    30.12F
HILL CITY KS   CLOUDY    44  29  55 N20G32    30.12S
IMPERIAL NEB   CLOUDY    38  23  55 N22G30    30.16S
MCCOOK NEB     CLOUDY    41  26  55 N23G35    30.13R
AKRON CO       CLOUDY    34  21  59 N25G33    30.18S
BURLINGTON CO  CLOUDY    39  23  52 N24G35    30.16S
LIMON CO       CLOUDY    32  26  78 N18G29    30.18S
$$

...UNOFFICIAL OBSERVATIONS...

CITY           SKY/WX    TMP DP  RH WIND       PRES   REMARKS
LENORA KS        N/A     42  32  68 N14         N/A
NORTON KS      PTSUNNY   43  23  45 NW18G30   30.10
SHARON SPRINGS   N/A     42  25  50 NW20G31     N/A
KIT CARSON CO    N/A     37  24  59 MISG        N/A
YUMA CO        CLOUDY    36  18  48 NW21G32   30.18R
$$




USA.gov is the U.S. government's official web portal to all federal, state and local government web resources and services.